Simultaneous Nadir Overpasses (SNOs) Predictions

Prediction of SNOs between GOES-17 and AQUA Satellite Orbit:

Table of predicted SNOs for the next 14.0 days since TLE Epoch: 11/16/2024
Index Date Time (GOES-17) GOES-17 Lat,Lon AQUA Lat,Lon Distance(km) Time Diff (sec)
1 11/17/2024 09:12:39 -0.00,-104.70 -0.40,-102.92 202.85 80
2 11/17/2024 21:32:25 0.00,-104.66 -0.67,-107.69 345.38 80
3 11/19/2024 21:16:37 -0.00,-104.66 0.32,-103.18 168.16 80
4 11/20/2024 09:36:15 0.00,-104.69 0.69,-107.93 367.56 80
5 11/22/2024 09:15:05 0.01,-104.69 -0.26,-103.40 146.79 80
6 11/22/2024 21:34:50 -0.01,-104.65 -0.76,-108.18 401.52 80
7 11/24/2024 21:19:00 -0.01,-104.65 0.22,-103.65 114.34 80
8 11/25/2024 09:38:36 0.01,-104.70 0.81,-108.39 420.20 80
9 11/27/2024 09:17:24 0.02,-104.70 -0.19,-103.86 96.14 80
10 11/27/2024 21:37:08 -0.02,-104.65 -0.89,-108.62 452.44 80
11 11/29/2024 21:21:14 -0.03,-104.65 0.08,-104.08 64.68 80
